This is the latest recevied weather packets stored in our database for station/object K7DC. If no packets are shown the sender has not sent any weather packets the latest 10 day(s).
| Time | Temp. | Humidity | Pressure | Rain* | Wind** | Luminosity | Snow |
|---|---|---|---|---|---|---|---|
| 1788274119 | 24.44° C | 70% | 1018.4 hPa | 0 mm | - | 235 W/m² | - |
| 1788273815 | 24.44° C | 71% | 1018.3 hPa | 0 mm | - | 55 W/m² | - |
| 1788273511 | 24.44° C | 72% | 1018.6 hPa | 0 mm | - | 199 W/m² | - |
| 1788273207 | 23.89° C | 72% | 1018.4 hPa | 0 mm | - | 181 W/m² | - |
| 1788272903 | 23.33° C | 74% | 1018.6 hPa | 0 mm | - | 50 W/m² | - |
| 1788272602 | 23.33° C | 75% | 1018.5 hPa | 0 mm | - | 147 W/m² | - |
| 1788272297 | 22.78° C | 76% | 1018.2 hPa | 0 mm | - | 130 W/m² | - |
| 1788271992 | 22.78° C | 76% | 1018.2 hPa | 0 mm | - | 51 W/m² | - |
| 1788271691 | 22.78° C | 77% | 1018.4 hPa | 0 mm | - | 103 W/m² | - |
| 1788271389 | 22.22° C | 78% | 1018.2 hPa | 0 mm | - | 89 W/m² | - |
| 1788271084 | 22.22° C | 79% | 1018.1 hPa | 0 mm | - | 77 W/m² | - |
| 1788270779 | 22.22° C | 81% | 1018.1 hPa | 0 mm | - | 75 W/m² | - |
| 1788270475 | 21.67° C | 82% | 1018.2 hPa | 0 mm | - | 65 W/m² | - |
| 1788270175 | 21.11° C | 84% | 1018.2 hPa | 0 mm | - | 56 W/m² | - |
| 1788269875 | 21.11° C | 85% | 1018 hPa | 0 mm | - | 45 W/m² | - |
| 1788269574 | 20.56° C | 86% | 1018 hPa | 0 mm | - | 36 W/m² | - |
| 1788269273 | 20° C | 89% | 1017.9 hPa | 0 mm | - | 28 W/m² | - |
| 1788268968 | 19.44° C | 92% | 1017.8 hPa | 0 mm | - | 19 W/m² | - |
| 1788268663 | 18.89° C | 92% | 1017.6 hPa | 0 mm | - | 15 W/m² | - |
| 1788268362 | 18.89° C | 91% | 1017.4 hPa | 0 mm | - | 10 W/m² | - |
| 1788268057 | 18.89° C | 92% | 1017.7 hPa | 0 mm | - | 7 W/m² | - |
| 1788267756 | 18.89° C | 93% | 1017.6 hPa | 0 mm | - | 4 W/m² | - |
| 1788267454 | 18.89° C | 93% | 1017.6 hPa | 0 mm | - | 2 W/m² | - |
| 1788267150 | 18.89° C | 92% | 1017.3 hPa | 0 mm | - | 1 W/m² | - |
| 1788266850 | 18.89° C | 93% | 1017.2 hPa | 0 mm | - | 0 W/m² | - |
* Rain latest hour (hover to see other rain measurements)
** Current wind speed in m/s (hover to see current wind gust speed)